Location: Albany
(35.0170°S, 117.8920°E)
Time: 10:05:30
(UTC+08:00)

A-11 Canister half - Pass Details

Date: 25 January 2021
Orbit: 1524 x 1684 km, 47.3° (Epoch: 25 February)

Event Time Altitude Azimuth Distance (km) Brightness Sun altitude
Rises 22:52:48 0° 9° (N) 4,912 - -32.3°
Reaches altitude 10° 22:58:21 10° 33° (NNE) 3,941 - -32.7°
Maximum altitude 23:02:37 13° 59° (ENE) 3,673 - -33.1°
Drops below altitude 10° 23:06:52 10° 84° (E) 3,948 - -33.4°
Exits shadow 23:08:29 - 92° (E) 4,176 11.1 -33.5°
Sets 23:12:22 0° 108° (ESE) 4,926 11.6 -33.8°
